Starlink 5062

operational
NORAD ID: 55637 Int'l Des: 2023-021 Owner: SPXS Country: US Constellation: starlink
LEOCIRCULAR

About Starlink 5062

Description loading...

Live Position

Loading 3D Globe...

Upcoming Passes

Altitude History

Altitude vs Time

uPlot chart will show altitude changes over time

Two-Line Element Set

1 55637U 23021K 25257.47679845 -.00000082 00000-0 93478-6 0 9993
2 55637 69.9975 268.8612 0003281 268.8617 91.2166 14.98321459142398
Epoch: Sep 14, 2025 • Age: 24 hours

Current Status

Altitude 574.6 km
Velocity 7.57 km/s
Sub-Earth Point 16.50°N, 104.48°E
Launch Date Feb 17, 2023
Age 2.5 years
Type internet

Technical Details

Classification Payload
Mass 305.00 kg
Dry Mass 290.00 kg
Total Mass 305.00 kg
Length 0.20 m
Diameter 2.80 m
Span 9.00 m
Shape Box + pan
Manufacturer SPXS
Bus Type Starlink
Phase Status In Orbit
Owner/State SPXS/US

Large Constellations

Loading constellations...